CST,Max TemperatureF,Mean TemperatureF,Min TemperatureF,Max Dew PointF,MeanDew PointF,Min DewpointF,Max Humidity, Mean Humidity, Min Humidity, Max Sea Level PressureIn, Mean Sea Level PressureIn, Min Sea Level PressureIn, Max VisibilityMiles, Mean VisibilityMiles, Min VisibilityMiles, Max Wind SpeedMPH, Mean Wind SpeedMPH, Max Gust SpeedMPH,PrecipitationIn, CloudCover, Events, WindDirDegrees
2012-11-1,57,47,37,41,38,34,100,73,46,30.09,30.00,29.93,10,7,0,16,7,18,0.00,2,Fog,32
2012-11-2,45,33,21,39,35,21,100,83,65,30.18,29.96,29.87,10,5,0,25,9,30,0.00,5,Fog,93
2012-11-3,57,39,21,38,32,19,100,74,47,30.26,30.20,30.17,10,9,2,14,4,17,0.00,2,,11
2012-11-4,57,41,24,38,33,23,92,68,43,30.16,30.10,30.04,10,10,10,16,6,20,T,2,,318
2012-11-5,49,43,37,38,35,32,92,73,54,30.24,30.14,30.02,10,10,10,25,10,32,0.00,5,,332
2012-11-6,58,44,30,40,26,19,71,47,23,30.19,30.12,30.01,10,10,10,33,14,41,T,1,,333
2012-11-7,61,41,20,27,23,16,84,55,25,30.19,30.07,29.89,10,10,10,22,8,26,0.00,0,,163
2012-11-8,62,48,33,33,30,25,85,61,36,29.94,29.88,29.84,10,10,8,23,11,28,0.00,0,,7
2012-11-9,44,38,32,39,35,30,100,88,76,29.91,29.79,29.62,8,4,0,17,8,21,0.00,8,Fog,28
2012-11-10,49,35,21,40,35,16,100,86,71,29.88,29.60,29.48,10,6,0,40,12,49,0.06,7,Fog-Rain-Thunderstorm,348
2012-11-11,32,23,13,16,10,5,80,60,39,30.27,30.07,29.81,10,10,10,29,16,37,0.00,1,,316
2012-11-12,43,27,11,11,8,4,76,48,19,30.41,30.34,30.26,10,10,10,24,10,29,0.00,0,,293
2012-11-13,56,34,11,23,15,7,80,50,20,30.37,30.30,30.21,10,10,10,13,3,17,0.00,2,,309
2012-11-14,56,35,14,29,21,11,92,61,30,30.34,30.24,30.16,10,10,10,18,5,24,0.00,1,,193
2012-11-15,56,38,19,28,23,16,81,54,27,30.48,30.34,30.15,10,10,10,17,7,21,0.00,2,,2
2012-11-16,55,35,14,32,24,12,92,64,35,30.47,30.34,30.17,10,9,1,23,9,31,0.00,0,,172
2012-11-17,56,43,29,34,31,24,89,66,43,30.16,30.10,30.05,10,10,10,17,7,26,0.00,0,,179
2012-11-18,57,41,25,36,30,22,92,69,46,30.07,30.01,29.94,10,9,5,21,5,25,0.00,0,,178
2012-11-19,62,44,26,35,29,20,85,56,27,30.23,30.11,29.95,10,10,10,17,9,22,0.00,0,,314
2012-11-20,70,45,20,30,25,16,92,57,22,30.25,30.16,30.04,10,10,10,23,6,31,0.00,0,,202
2012-11-21,64,46,27,29,24,17,78,50,22,30.03,29.91,29.76,10,10,6,20,6,28,0.00,0,,199
2012-11-22,56,43,30,35,24,18,61,44,26,30.41,30.04,29.71,10,10,10,35,20,44,0.00,0,,327
2012-11-23,39,28,16,14,9,6,73,53,33,30.62,30.50,30.26,10,10,10,38,11,48,0.00,0,,329
2012-11-24,59,39,19,21,17,11,67,45,23,30.32,30.02,29.83,10,10,10,13,5,15,0.00,0,,188
2012-11-25,46,35,23,29,23,15,85,59,33,30.17,30.04,29.96,10,10,10,16,6,21,0.00,4,,27
2012-11-26,32,20,7,27,18,5,100,89,78,30.50,30.36,30.11,10,4,0,17,7,22,0.02,6,Fog-Rain-Snow,12
2012-11-27,42,27,11,28,19,9,92,72,51,30.43,30.30,30.12,10,9,2,14,6,54,0.00,0,,243
2012-11-28,47,27,7,27,19,8,92,69,45,30.39,30.25,30.07,10,10,10,24,6,33,0.00,0,,190
2012-11-29,64,40,15,30,23,14,92,56,19,30.05,30.00,29.88,10,10,9,29,5,37,0.00,0,,282
2012-11-30,55,39,22,32,26,19,92,67,41,30.11,30.02,29.88,10,10,10,16,4,20,0.00,0,,148